Location: Gisborne
(38.6530°S, 178.0040°E)
Time: 01:10:22
(UTC+12:00)

Cosmos 2237 - Pass Details

Date: 24 January 2019
Orbit: 846 x 856 km, 70.8° (Epoch: 19 April)

Event Time Altitude Azimuth Distance (km) Brightness Sun altitude
Exits shadow 22:25:21 21° 356° (N) 1,839 5.6 -19.1°
Maximum altitude 22:29:12 62° 71° (ENE) 963 4.2 -19.6°
Drops below altitude 10° 22:34:53 10° 150° (SSE) 2,509 6.9 -20.4°
Sets 22:37:22 0° 153° (SSE) 3,450 7.7 -20.7°
